Home > Weather > Lüdenscheid > Past weeks

Flag for Germany Weather for the Past 2 Weeks in Lüdenscheid, North Rhine-Westphalia, Germany

Now
46 °F

Passing clouds.


Feels Like: 39 °F
Forecast: 33 / 37 °F
Wind: 18 mph from Southwest

Location: Koeln / Bonn

Current Time: Feb 9, 2016 at 2:50:48 AM

Latest Report: Feb 9, 2016 at 1:50 AM


Visibility: N/A

Pressure: 29.53 "Hg

Humidity: 62%

Dew point: 34 °F

Location of LüdenscheidLocation

Historic Weather in Lüdenscheid — Graph

°F

Lüdenscheid Temperature Yesterday

Maximum temperature yesterday: 52 °F (at 2:20 PM)
Minimum temperature yesterday: 45 °F (at 12:20 AM)
Average temperature yesterday: 48 °F

High & Low Weather Summary for the Past Weeks

 TemperatureHumidityPressure
High57 °F (Jan 25, 2:50 PM)100% (Jan 30, 6:20 PM)30.39 "Hg (Jan 30, 6:20 PM)
Low32 °F (Jan 29, 3:20 AM)50% (Feb 8, 3:50 PM)29.30 "Hg (Feb 8, 1:20 PM)
Average46 °F80%30.01 "Hg
* Reported Jan 25 1:20 AM — Feb 9 1:20 AM, Lüdenscheid, Weather by CustomWeather, © 2016

Note: Actual official high and low records may vary slightly from our data, if they occured in-between our weather recording intervals... More about our weather records

Advertising

Lüdenscheid Weather History for the Previous 24 Hours

 ConditionsComfort  
Time TempWeatherWind HumidityBarometerVisibility
1:20 AM
Tue, Feb 9
46 °FPassing clouds.20 mph57%29.50 "HgN/A
12:50 AM46 °FPartly cloudy.23 mph62%29.50 "HgN/A
12:20 AM46 °FPassing clouds.22 mph57%29.50 "HgN/A
11:50 PM
Mon, Feb 8
48 °FPassing clouds.23 mph54%29.50 "HgN/A
11:20 PM46 °FPassing clouds.26 mph62%29.47 "HgN/A
10:50 PM48 °FPassing clouds.26 mph58%29.47 "HgN/A
10:20 PM48 °FPassing clouds.25 mph58%29.45 "HgN/A
9:50 PM48 °FPassing clouds.30 mph58%29.45 "HgN/A
9:20 PM48 °FSprinkles. Passing clouds.30 mph58%29.45 "HgN/A
8:50 PM48 °FPartly cloudy.22 mph58%29.42 "HgN/A
8:20 PM48 °FClear.20 mph58%29.42 "Hg10 mi
7:50 PM46 °FPassing clouds.18 mph62%29.42 "HgN/A
7:20 PM46 °FPassing clouds.17 mph62%29.39 "HgN/A
6:50 PM46 °FSprinkles. Partly cloudy.17 mph66%29.39 "HgN/A
6:20 PM46 °FSprinkles. Partly cloudy.16 mph66%29.39 "HgN/A
5:50 PM48 °FPartly cloudy.22 mph58%29.39 "HgN/A
5:20 PM48 °FScattered clouds.18 mph58%29.36 "HgN/A
4:50 PM48 °FPartly sunny.16 mph58%29.36 "HgN/A
4:20 PM50 °FPartly sunny.23 mph54%29.36 "HgN/A
3:50 PM52 °FScattered clouds.22 mph50%29.33 "HgN/A
3:20 PM50 °FScattered clouds.25 mph54%29.33 "HgN/A
2:50 PM50 °FPartly sunny.20 mph62%29.33 "HgN/A
2:20 PM52 °FScattered clouds.21 mph62%29.33 "HgN/A
1:50 PM50 °FScattered clouds.22 mph62%29.33 "HgN/A
1:20 PM50 °FScattered clouds.21 mph62%29.30 "HgN/A
12:50 PM48 °FPartly sunny.23 mph66%29.33 "HgN/A
12:20 PM48 °FPartly sunny.17 mph71%29.33 "HgN/A
11:50 AM48 °FPartly sunny.16 mph71%29.33 "HgN/A
11:20 AM48 °FLight rain. Partly sunny.14 mph82%29.36 "HgN/A
10:50 AM46 °FBroken clouds.12 mph87%29.36 "HgN/A
10:20 AM46 °FBroken clouds.12 mph87%29.36 "HgN/A
9:50 AM45 °FRain. Partly sunny.17 mph93%29.36 "HgN/A
9:20 AM46 °FRain. Overcast.13 mph93%29.36 "Hg6 mi
8:50 AM46 °FRain. Partly sunny.14 mph87%29.36 "Hg4 mi
8:20 AM48 °FLight rain. Broken clouds.18 mph76%29.33 "HgN/A
7:50 AM48 °FPassing clouds.18 mph71%29.36 "HgN/A
7:20 AM46 °FLight rain. Passing clouds.22 mph76%29.36 "HgN/A
6:50 AM46 °FPassing clouds.20 mph76%29.36 "HgN/A
6:20 AM46 °FPassing clouds.21 mph76%29.39 "HgN/A
5:50 AM46 °FPassing clouds.16 mph71%29.42 "HgN/A
5:20 AM46 °FPassing clouds.20 mph71%29.42 "HgN/A
4:20 AM46 °FPassing clouds.20 mph71%29.47 "HgN/A
3:50 AM46 °FPassing clouds.18 mph71%29.47 "HgN/A
3:20 AM46 °FPassing clouds.17 mph66%29.50 "HgN/A
2:50 AM46 °FPassing clouds.20 mph66%29.53 "HgN/A
2:20 AM46 °FPartly cloudy.20 mph66%29.53 "HgN/A
Weather by CustomWeather, © 2016

See weather overviewHow to use our weather pages